DELTA 1 DEB, 40764

Orbit data source: Space-Track

DELTA 1 DEB, 40764 is space debris in LEO originally from a launch on Thu, 29 Jul 1976 UTC launched from the Air Force Western Test Range (AFWTR). Debris objects in space refer to the collection of defunct objects orbiting the Earth. Examples of debris include non-operational satellites, rocket bodies, and fragments generated from explosions, collisions, or faulty payload assembly.

Loading next visibility...
DELTA 1 DEB details
Identifier
40764, 1976-077GH
Orbit
LEO
Last TLE update4 days ago
Origin
Flag of USGSFC (US)
ManufacturerUnknown
MissionSpacecraft
Bus & MotorUnknown
MassUnknown
Launch date (UTC)
1976-07-29 (48 years ago)
Launch vehicleUnknown
Launch site
Air Force Western Test Range (AFWTR)
Object type
Payload
Rocket body
Debris
Shape & HBRUnknown
Radar Cross SectionSmall (<0.1 m²)

Expand to show TLE details & history

TLE from 4 days ago
0 DELTA 1 DEB
1 40764U 76077GH  24336.17009617  .00000032  00000-0  57443-3 0  9998
2 40764 102.1287 307.4213 0001707  16.6775 343.4345 12.40668348832002
Epoch: 2024-12-01T04:04Z
Definitive object data (Epoch: 2024-12-01T04:04:56.309Z)
Latitude0.00007°
Longitude175.67451°
Altitude1,505.026 km
Speed7.113 km/s
True Right ascension20h 29m 41s
True Declination0° 00' 00"
Sunlit
Object was in daylight at TLE epoch
Visualization TLE readout
Latitude-37.34782°
Longitude-9.7311°
Altitude1,518.831 km
Speed7.105 km/s
Apparent Right ascension10h 37m 35s
Apparent Declination-47° 37' 23"
Sunlit
Object is in daylight
Visualization observer readout
Local Sidereal Time02:02:12
Azimuth119.362° SE
Elevation-52.964°
Doppler factor1
Orbital elements
Apogee altitude1,502.698 km
Perigee altitude1,500.008 km
Semi-major axis7,879.49 km
Eccentricity0.0001707
Inclination102.1287°
RAAN307.4213°
Arg. of periapsis16.6775°
True anomaly343.42892°
Mean anomaly343.4345°
Eccentric anomaly343.43171°
Mean motion3.1031 °/min
BSTAR0.00057443
Orbital period116.01 mins
Loading maneuver chart data...
Loading historical data...
Loading historical data...
Loading historical data...
Loading historical data...
Loading historical data...
Loading historical data...
Loading historical data...

DELTA 1 DEB Visibility forecast

Observer location: undefined°, undefined

Span
Click to sort rows by Start time (UTC) header in descending order
Start Az.
Max El. time (UTC)
Max El. Az.
Max El.
End time (UTC)
End Az.
8 mins2024-12-05 09:24:52.105Z59.761° ENE2024-12-05 09:28:52.105Z89.598° E15.422°2024-12-05 09:32:52.105Z119.845° SE
15 mins2024-12-05 11:16:52.105Z19.653° NNE2024-12-05 11:23:52.105Z101.039° ESE44.864°2024-12-05 11:31:52.105Z197.127° SSW
11 mins2024-12-05 13:11:52.105Z348.208° N2024-12-05 13:16:52.105Z306.612° NW21.791°2024-12-05 13:22:52.105Z260.501° W
12 mins2024-12-05 20:29:52.105Z103.1° ESE2024-12-05 20:34:52.105Z60.602° ENE25.542°2024-12-05 20:41:52.105Z2.447° NNE
15 mins2024-12-05 22:21:52.105Z173.613° S2024-12-05 22:28:52.105Z270.978° WNW42.994°2024-12-05 22:36:52.105Z337.637° N
|